This demonstration page uses our WeatherBlox Daily Observations layout. Learn more.

Left ArrowRight Arrow

40.92501, -98.34201

Hourly Observations for August 28, 2022

Temp ( °F °C ) Dew Point ( °F °C ) Humidity (%) Winds ( mph kmh ) Pressure ( in mb ) Visibility ( mi km ) Precip ( " mm )
12:53 am 00:53 Clear 70 21.1 64 17.8 81 81 S 14 22 29.68 1005 10 16 0.00 0.00
1:53 am 01:53 Clear 70 21.1 65 18.3 84 84 S 14 22 29.69 1005 10 16 0.00 0.00
2:53 am 02:53 Clear 69 20.6 65 18.3 87 87 S 13 20 29.67 1005 10 16 0.00 0.00
3:53 am 03:53 Clear 69 20.6 64 17.8 84 84 S 13 20 29.66 1004 10 16 0.00 0.00
4:53 am 04:53 Clear 68 20 64 17.8 87 87 S 13 20 29.65 1004 10 16 0.00 0.00
5:53 am 05:53 Clear 69 20.6 64 17.8 84 84 S 15 24 29.65 1004 10 16 0.00 0.00
6:53 am 06:53 Clear 68 20 64 17.8 87 87 S 13 20 29.65 1004 10 16 0.00 0.00
7:53 am 07:53 Sunny 68 20 64 17.8 87 87 S 14 22 29.65 1004 10 16 0.00 0.00
8:53 am 08:53 Mostly Sunny 71 21.7 65 18.3 81 81 S 12 19 29.65 1004 10 16 0.00 0.00
9:53 am 09:53 Mostly Cloudy 74 23.3 66 18.9 76 76 SSW 15 24 29.65 1004 10 16 0.00 0.00
10:09 am 10:09 Partly Cloudy 75 23.9 66 18.9 74 74 SSW 16 26 29.60 1002 10 16 0.00 0.00
10:53 am 10:53 Sunny 78 25.6 66 18.9 67 67 SSW 13 20 29.64 1004 10 16 0.00 0.00
11:53 am 11:53 Sunny 82 27.8 67 19.4 60 60 S 15 24 29.64 1004 10 16 0.00 0.00
12:53 pm 12:53 Sunny 88 31.1 68 20 52 52 SSW 13 20 29.63 1003 10 16 0.00 0.00
1:53 pm 13:53 Sunny 91 32.8 66 18.9 44 44 SW 13 20 29.62 1003 10 16 0.00 0.00
2:53 pm 14:53 Sunny 93 33.9 67 19.4 43 43 SSW 13 20 29.62 1003 10 16 0.00 0.00
3:53 pm 15:53 Sunny 94 34.4 65 18.3 39 39 S 13 20 29.61 1003 10 16 0.00 0.00
4:53 pm 16:53 Sunny 95 35 65 18.3 37 37 S 10 17 29.60 1003 10 16 0.00 0.00
5:53 pm 17:53 Sunny 94 34.4 64 17.8 37 37 SW 10 17 29.60 1002 10 16 0.00 0.00
6:53 pm 18:53 Sunny 93 33.9 63 17.2 37 37 SSW 8 13 29.61 1003 10 16 0.00 0.00
7:53 pm 19:53 Sunny 86 30 66 18.9 51 51 S 5 7 29.62 1003 10 16 0.00 0.00
8:53 pm 20:53 Clear 83 28.3 66 18.9 57 57 NNW 10 17 29.66 1005 10 16 0.00 0.00
9:53 pm 21:53 Clear 78 25.6 66 18.9 67 67 NNE 7 11 29.71 1006 10 16 0.00 0.00
10:53 pm 22:53 Clear 75 23.9 66 18.9 74 74 NNE 7 11 29.74 1007 10 16 0.00 0.00
11:53 pm 23:53 Clear 72 22.2 66 18.9 82 82 NNE 8 13 29.75 1008 10 16 0.00 0.00

Powered by AerisWeather